Flag for Czech Republic Weather past 2 weeks in Brno, Czech Republic

Now
68 °F

Light rain. Overcast.


Feels Like: 68 °F
Forecast: 49 / 72 °F
Wind: 2 mph from East

Location: Brno / Turany

Current Time: Aug 29, 2014 at 9:14:48 PM

Latest Report: Aug 29, 2014 at 8:00 PM


Visibility: 25 mi

Pressure: 30.01 "Hg

Humidity: 61%

Dew point: 54 °F

Location of BrnoLocation

Historic Weather in Brno — Graph

°F

Brno temperature yesterday

Maximum temperature yesterday: 71 °F (at 5:00 PM)
Minimum temperature yesterday: 46 °F (at 6:00 AM)
Average temperature yesterday: 59 °F

Past Weeks' High & Low Weather Summary

 TemperatureHumidityPressure
High76 °F (Aug 18, 5:00 PM)97% (Aug 19, 4:00 AM)30.14 "Hg (Aug 19, 4:00 AM)
Low44 °F (Aug 25, 6:00 AM)40% (Aug 18, 1:00 PM)29.71 "Hg (Aug 26, 6:00 PM)
Average60 °F77%29.97 "Hg
* Reported Aug 14 8:00 PM — Aug 29 8:00 PM, Brno, Weather by CustomWeather, © 2014

Note: Actual official high and low records may vary slightly from our data, if they occured in-between our weather recording intervals... More about our weather records

Advertising

Brno weather history for previous 24 hours

 ConditionsComfort  
Time TempWeatherWind HumidityBarometerVisibility
8:00 PM
Aug 29
68 °FLight rain. Overcast.2 mph61%30.01 "Hg25 mi
7:00 PM68 °FOvercast.2 mph62%30.02 "Hg25 mi
6:00 PM72 °FPartly sunny.5 mph53%30.02 "Hg25 mi
5:00 PM72 °FOvercast.3 mph54%30.03 "Hg28 mi
4:00 PM73 °FPartly sunny.5 mph44%30.04 "Hg25 mi
3:00 PM71 °FPartly sunny.3 mph51%30.05 "Hg25 mi
2:00 PM71 °FPartly sunny.3 mph50%30.06 "Hg22 mi
1:00 PM69 °FPartly sunny.3 mph57%30.07 "Hg22 mi
12:00 PM67 °FPassing clouds.2 mph59%30.09 "Hg22 mi
11:00 AM65 °FPassing clouds.2 mph65%30.10 "Hg22 mi
10:00 AM62 °FPassing clouds.2 mph65%30.11 "Hg19 mi
9:00 AM58 °FPassing clouds.2 mph72%30.12 "Hg19 mi
8:00 AM54 °FPassing clouds.1 mph82%30.12 "Hg22 mi
7:00 AM49 °FPassing clouds.1 mph87%30.13 "Hg16 mi
6:00 AM48 °FPassing clouds.1 mph90%30.13 "Hg16 mi
5:00 AM49 °FPassing clouds.2 mph89%30.13 "Hg19 mi
4:00 AM49 °FPassing clouds.2 mph88%30.13 "Hg19 mi
3:00 AM50 °FPassing clouds.1 mph87%30.13 "Hg19 mi
2:00 AM51 °FClear.1 mph87%30.13 "Hg19 mi
1:00 AM49 °FClear.2 mph88%30.14 "Hg19 mi
12:00 AM53 °FClear.2 mph78%30.13 "Hg19 mi
11:00 PM
Aug 28
58 °FPassing clouds.2 mph65%30.11 "Hg19 mi
10:00 PM61 °FPassing clouds.2 mph57%30.10 "Hg22 mi
9:00 PM62 °FPassing clouds.2 mph58%30.09 "Hg25 mi
Weather by CustomWeather, © 2014

See weather overviewHow to use our weather pages